Ahaus

DE-0508 · North Rhine-Westphalia, Alemanha

História da METAR DE-0508 · Ahaus

Abaixo você vê METARs dos últimos dias. Selecione um ano para navegar pelos METARs mais antigos, a partir do ano 2007.

15 de abril de 2024

Hora Código Clima Temp. Visibilidade Tecto Vento METAR/SPECI
05:20
V
8 °C 10 km+ - 170° 170° 4 kt METAR EDDG 150320Z AUTO 17004KT 140V210 CAVOK 08/07 Q1012 NOSIG
04:50
V
7 °C 10 km+ - 150° 150° 3 kt METAR EDDG 150250Z AUTO 15003KT 9999 FEW040 07/06 Q1012 NOSIG
04:20
V
7 °C 10 km+ - Var Var 2 kt METAR EDDG 150220Z AUTO VRB02KT 9999 FEW040 07/06 Q1013 NOSIG
03:50
V
7 °C 10 km+ - Var Var 2 kt METAR EDDG 150150Z AUTO VRB02KT 9999 FEW014 07/06 Q1013 NOSIG
03:20
M
8 °C 10 km+ 1.600 ft 050° 050° 3 kt METAR EDDG 150120Z AUTO 05003KT 9999 BKN016 BKN027 BKN038 08/06 Q1014 NOSIG
02:50
M
7 °C 10 km+ 2.600 ft Var Var 2 kt METAR EDDG 150050Z AUTO VRB02KT 9999 BKN026 OVC031 07/06 Q1015 NOSIG
02:20
V
8 °C 10 km+ 3.300 ft Var Var 2 kt METAR EDDG 150020Z AUTO VRB02KT 9999 -RA BKN033 BKN040 08/06 Q1015 NOSIG
01:50
V
8 °C 10 km+ 4.400 ft 130° 130° 3 kt METAR EDDG 142350Z AUTO 13003KT 100V170 9999 -RA BKN044 08/06 Q1015 NOSIG
01:20
V
8 °C 10 km+ 4.200 ft Var Var 2 kt METAR EDDG 142320Z AUTO VRB02KT 9999 -RADZ FEW028 BKN042 OVC048 08/06 Q1016 RERA NOSIG
00:50
V
9 °C 10 km+ - 150° 150° 3 kt METAR EDDG 142250Z AUTO 15003KT 110V210 9999 -RA FEW036 09/04 Q1016 NOSIG
00:20
V
9 °C 10 km+ - Var Var 1 kt METAR EDDG 142220Z AUTO VRB01KT 9999 -RA FEW031 09/03 Q1016 NOSIG

14 de abril de 2024

Hora Código Clima Temp. Visibilidade Tecto Vento METAR/SPECI
23:50
V
10 °C 10 km+ - Var Var 1 kt METAR EDDG 142150Z AUTO VRB01KT CAVOK 10/02 Q1016 NOSIG
23:20
V
10 °C 10 km+ - 310° 310° 1 kt METAR EDDG 142120Z AUTO 31001KT CAVOK 10/02 Q1017 NOSIG
22:50
V
10 °C 10 km+ - 340° 340° 3 kt METAR EDDG 142050Z AUTO 34003KT CAVOK 10/02 Q1017 NOSIG
22:20
V
10 °C 10 km+ - 350° 350° 3 kt METAR EDDG 142020Z AUTO 35003KT CAVOK 10/03 Q1018 NOSIG
21:50
V
11 °C 10 km+ - 340° 340° 3 kt METAR EDDG 141950Z AUTO 34003KT CAVOK 11/03 Q1018 NOSIG
21:20
V
11 °C 10 km+ - 320° 320° 5 kt METAR EDDG 141920Z AUTO 32005KT CAVOK 11/03 Q1018 NOSIG
20:50
V
12 °C 10 km+ - 300° 300° 4 kt METAR EDDG 141850Z AUTO 30004KT CAVOK 12/03 Q1019 NOSIG
20:20
V
12 °C 10 km+ - 300° 300° 4 kt METAR EDDG 141820Z AUTO 30004KT 270V330 CAVOK 12/03 Q1019 NOSIG
19:50
V
12 °C 10 km+ - 320° 320° 5 kt METAR EDDG 141750Z AUTO 32005KT 280V350 CAVOK 12/03 Q1019 NOSIG
19:20
V
13 °C 10 km+ - 310° 310° 6 kt METAR EDDG 141720Z AUTO 31006KT 280V360 CAVOK 13/02 Q1019 NOSIG
18:50
V
14 °C 10 km+ - 320° 320° 7 kt METAR EDDG 141650Z AUTO 32007KT 290V350 CAVOK 14/02 Q1019 NOSIG
18:20
V
14 °C 10 km+ - 290° 290° 7 kt METAR EDDG 141620Z AUTO 29007KT 260V320 CAVOK 14/02 Q1020 NOSIG
17:50
V
15 °C 10 km+ - 270° 270° 9 kt METAR EDDG 141550Z AUTO 27009KT 230V310 CAVOK 15/02 Q1020 NOSIG
17:20
V
15 °C 10 km+ - 270° 270° 10 kt METAR EDDG 141520Z AUTO 27010KT 250V330 CAVOK 15/01 Q1020 NOSIG
16:50
V
15 °C 10 km+ - 280° 280° 9 kt METAR EDDG 141450Z AUTO 28009KT 230V340 CAVOK 15/02 Q1020 NOSIG
16:20
V
15 °C 10 km+ - 300° 300° 11 kt METAR EDDG 141420Z AUTO 30011KT 260V340 CAVOK 15/02 Q1020 NOSIG
15:50
V
14 °C 10 km+ - 300° 300° 10 kt METAR EDDG 141350Z AUTO 30010KT 260V330 CAVOK 14/03 Q1021 NOSIG
15:20
V
16 °C 10 km+ - 280° 280° 12 kt METAR EDDG 141320Z AUTO 28012KT 240V320 CAVOK 16/03 Q1021 NOSIG
14:50
V
15 °C 10 km+ - 290° 290° 10 kt METAR EDDG 141250Z AUTO 29010KT 260V330 CAVOK 15/02 Q1021 NOSIG
14:20
V
15 °C 10 km+ - 290° 290° 11 kt METAR EDDG 141220Z AUTO 29011KT 260V320 CAVOK 15/02 Q1022 NOSIG
13:50
V
14 °C 10 km+ - 270° 270° 13 kt METAR EDDG 141150Z AUTO 27013KT 250V310 9999 FEW040 14/03 Q1022 NOSIG
13:20
V
14 °C 10 km+ 3.800 ft 280° 280° 11 kt METAR EDDG 141120Z AUTO 28011KT 240V310 9999 BKN038 BKN049 14/05 Q1022 NOSIG
12:50
V
14 °C 10 km+ 4.800 ft 260° 260° 8 kt METAR EDDG 141050Z AUTO 26008KT 220V300 9999 SCT035 BKN048 14/06 Q1022 NOSIG
12:20
V
13 °C 10 km+ - 270° 270° 7 kt METAR EDDG 141020Z AUTO 27007KT 230V300 9999 FEW037 SCT044 13/06 Q1022 BECMG 28012KT
11:50
V
13 °C 10 km+ - 280° 280° 7 kt METAR EDDG 140950Z AUTO 28007KT 240V340 9999 FEW029 13/06 Q1022 BECMG 28012KT
11:20
V
13 °C 10 km+ - 300° 300° 7 kt METAR EDDG 140920Z AUTO 30007KT 260V340 9999 FEW028 13/06 Q1022 NOSIG
10:50
M
13 °C 10 km+ 2.900 ft 290° 290° 9 kt METAR EDDG 140850Z AUTO 29009KT 9999 BKN029 13/06 Q1022 NOSIG
10:20
M
12 °C 10 km+ 3.000 ft 320° 320° 8 kt METAR EDDG 140820Z AUTO 32008KT 280V350 9999 BKN030 12/06 Q1022 NOSIG
09:50
V
12 °C 10 km+ - 300° 300° 9 kt METAR EDDG 140750Z AUTO 30009KT 270V340 9999 FEW030 12/06 Q1021 NOSIG
09:20
V
12 °C 10 km+ - 300° 300° 8 kt METAR EDDG 140720Z AUTO 30008KT 270V340 9999 FEW030 12/05 Q1021 NOSIG
08:50
V
12 °C 10 km+ - 290° 290° 7 kt METAR EDDG 140650Z AUTO 29007KT 9999 SCT049 12/06 Q1021 NOSIG
08:20
V
11 °C 10 km+ 4.800 ft 300° 300° 7 kt METAR EDDG 140620Z AUTO 30007KT 270V340 9999 BKN048 11/06 Q1021 NOSIG
07:50
V
11 °C 10 km+ - 290° 290° 8 kt METAR EDDG 140550Z AUTO 29008KT 260V330 9999 SCT023 11/06 Q1021 NOSIG
07:20
V
11 °C 10 km+ 4.900 ft 290° 290° 8 kt METAR EDDG 140520Z AUTO 29008KT 260V320 9999 SCT019 BKN049 11/07 Q1020 NOSIG
06:50
V
11 °C 10 km+ 4.800 ft 290° 290° 6 kt METAR EDDG 140450Z AUTO 29006KT 9999 BKN048 11/07 Q1020 NOSIG
06:20
V
12 °C 10 km+ - 280° 280° 8 kt METAR EDDG 140420Z AUTO 28008KT 260V320 9999 SCT048 12/07 Q1020 NOSIG
05:50
V
13 °C 10 km+ 4.600 ft 270° 270° 7 kt METAR EDDG 140350Z AUTO 27007KT 9999 FEW027 BKN046 13/08 Q1019 NOSIG
05:20
V
14 °C 10 km+ 4.300 ft 280° 280° 7 kt METAR EDDG 140320Z AUTO 28007KT 260V330 9999 FEW027 BKN043 14/08 Q1019
04:50
V
14 °C 10 km+ 3.700 ft 290° 290° 11 kt METAR EDDG 140250Z AUTO 29011KT 250V320 9999 FEW027 OVC037 14/09 Q1019 NOSIG
04:20
M
14 °C 10 km+ 2.900 ft 280° 280° 10 kt METAR EDDG 140220Z AUTO 28010KT 9999 BKN029 BKN043 14/09 Q1019 NOSIG
03:50
V
14 °C 10 km+ 4.000 ft 270° 270° 8 kt METAR EDDG 140150Z AUTO 27008KT 9999 BKN040 14/08 Q1019 NOSIG
03:20
V
14 °C 10 km+ - 260° 260° 8 kt METAR EDDG 140120Z AUTO 26008KT 9999 FEW038 14/08 Q1018 NOSIG
02:50
V
15 °C 10 km+ - 270° 270° 10 kt METAR EDDG 140050Z AUTO 27010KT CAVOK 15/08 Q1018 NOSIG
02:20
V
16 °C 10 km+ - 270° 270° 12 kt METAR EDDG 140020Z AUTO 27012KT CAVOK 16/08 Q1018 NOSIG
01:50
V
16 °C 10 km+ - 270° 270° 11 kt METAR EDDG 132350Z AUTO 27011KT CAVOK 16/09 Q1018 NOSIG
01:20
V
17 °C 10 km+ - 260° 260° 14 kt METAR EDDG 132320Z AUTO 26014KT CAVOK 17/09 Q1018 NOSIG
00:50
V
18 °C 10 km+ - 260° 260° 13 kt METAR EDDG 132250Z AUTO 26013KT 9999 FEW040 18/12 Q1017 NOSIG
00:20
V
18 °C 10 km+ 4.600 ft 260° 260° 10 kt METAR EDDG 132220Z AUTO 26010KT 9999 SCT038 BKN046 18/12 Q1017 TEMPO 27015KT

13 de abril de 2024

Hora Código Clima Temp. Visibilidade Tecto Vento METAR/SPECI
23:50
V
19 °C 10 km+ - 230° 230° 9 kt METAR EDDG 132150Z AUTO 23009KT CAVOK 19/12 Q1017 NOSIG
23:20
V
20 °C 10 km+ - 220° 220° 9 kt METAR EDDG 132120Z AUTO 22009KT CAVOK 20/12 Q1017 NOSIG
22:50
V
19 °C 10 km+ - 230° 230° 7 kt METAR EDDG 132050Z AUTO 23007KT CAVOK 19/12 Q1017 NOSIG
22:20
V
20 °C 10 km+ - 220° 220° 7 kt METAR EDDG 132020Z AUTO 22007KT 190V250 CAVOK 20/12 Q1017 NOSIG
21:50
V
20 °C 10 km+ - 220° 220° 6 kt METAR EDDG 131950Z AUTO 22006KT 190V250 CAVOK 20/12 Q1017 NOSIG
21:20
V
20 °C 10 km+ - 200° 200° 5 kt METAR EDDG 131920Z AUTO 20005KT CAVOK 20/12 Q1018 NOSIG
20:50
V
21 °C 10 km+ - 210° 210° 5 kt METAR EDDG 131850Z AUTO 21005KT 170V240 CAVOK 21/12 Q1018 NOSIG
20:20
V
21 °C 10 km+ - 220° 220° 6 kt METAR EDDG 131820Z AUTO 22006KT CAVOK 21/12 Q1018 NOSIG
19:50
V
22 °C 10 km+ - 230° 230° 7 kt METAR EDDG 131750Z AUTO 23007KT CAVOK 22/12 Q1018 NOSIG
19:20
V
22 °C 10 km+ - 230° 230° 8 kt METAR EDDG 131720Z AUTO 23008KT 190V250 CAVOK 22/12 Q1018 NOSIG
18:50
V
23 °C 10 km+ - 230° 230° 10 kt METAR EDDG 131650Z AUTO 23010KT CAVOK 23/11 Q1019 NOSIG
18:20
V
23 °C 10 km+ - 230° 230° 12 kt METAR EDDG 131620Z AUTO 23012KT 200V260 CAVOK 23/11 Q1019 NOSIG
17:50
V
23 °C 10 km+ - 230° 230° 13 kt METAR EDDG 131550Z AUTO 23013KT 200V260 CAVOK 23/11 Q1019 NOSIG
17:20
V
24 °C 10 km+ - 230° 230° 11 kt METAR EDDG 131520Z AUTO 23011KT 200V260 CAVOK 24/12 Q1019 NOSIG
16:50
V
23 °C 10 km+ - 220° 220° 13 kt METAR EDDG 131450Z AUTO 22013KT CAVOK 23/11 Q1020 NOSIG
16:20
V
23 °C 10 km+ - 230° 230° 14 kt METAR EDDG 131420Z AUTO 23014KT 190V260 9999 FEW046 23/12 Q1020 NOSIG
15:50
V
23 °C 10 km+ - 210° 210° 14 kt METAR EDDG 131350Z AUTO 21014KT 160V240 9999 FEW042 23/12 Q1021 NOSIG
15:20
V
22 °C 10 km+ - 220° 220° 12 kt METAR EDDG 131320Z AUTO 22012KT 190V250 9999 FEW039 22/13 Q1021 NOSIG
14:50
V
22 °C 10 km+ - 220° 220° 13 kt METAR EDDG 131250Z AUTO 22013KT 190V250 9999 FEW037 22/13 Q1022 NOSIG
14:20
V
22 °C 10 km+ - 210° 210° 12 kt METAR EDDG 131220Z AUTO 21012KT 160V250 9999 SCT036 22/13 Q1023 NOSIG
13:50
V
21 °C 10 km+ - 210° 210° 10 kt METAR EDDG 131150Z AUTO 21010KT 170V240 9999 SCT035 21/13 Q1023 NOSIG
13:20
V
21 °C 10 km+ - 210° 210° 12 kt METAR EDDG 131120Z AUTO 21012KT 9999 FEW032 21/12 Q1024 NOSIG
12:50
V
20 °C 10 km+ - 220° 220° 10 kt METAR EDDG 131050Z AUTO 22010KT 190V250 9999 FEW027 20/12 Q1024 NOSIG
12:20
V
19 °C 10 km+ 3.900 ft 210° 210° 10 kt METAR EDDG 131020Z AUTO 21010KT 180V240 9999 FEW023 BKN039 19/13 Q1024 NOSIG
11:50
V
18 °C 10 km+ 3.400 ft 210° 210° 7 kt METAR EDDG 130950Z AUTO 21007KT 160V250 9999 FEW024 BKN034 BKN042 18/12 Q1025 BECMG 22013KT
11:20
V
18 °C 10 km+ 4.300 ft 200° 200° 8 kt METAR EDDG 130920Z AUTO 20008KT 9999 FEW023 SCT036 BKN043 18/12 Q1025 BECMG 22013KT
10:50
V
17 °C 10 km+ 3.500 ft 220° 220° 8 kt METAR EDDG 130850Z AUTO 22008KT 9999 BKN035 BKN043 17/12 Q1025 BECMG 22013KT
10:20
V
17 °C 10 km+ 3.600 ft 210° 210° 7 kt METAR EDDG 130820Z AUTO 21007KT 9999 BKN036 BKN043 17/12 Q1025 BECMG 22013KT
09:50
V
16 °C 10 km+ - 220° 220° 7 kt METAR EDDG 130750Z AUTO 22007KT 180V250 9999 FEW037 16/12 Q1026 BECMG 22013KT
09:20
V
16 °C 10 km+ - 200° 200° 6 kt METAR EDDG 130720Z AUTO 20006KT 170V230 CAVOK 16/12 Q1025 BECMG 22011KT
08:50
V
15 °C 10 km+ - 200° 200° 6 kt METAR EDDG 130650Z AUTO 20006KT 170V230 CAVOK 15/12 Q1026 BECMG 22011KT
08:20
V
14 °C 10 km+ - 210° 210° 6 kt METAR EDDG 130620Z AUTO 21006KT 180V240 CAVOK 14/11 Q1026 BECMG 22011KT
07:50
V
14 °C 10 km+ - 200° 200° 6 kt METAR EDDG 130550Z AUTO 20006KT 160V220 CAVOK 14/11 Q1026 NOSIG
07:20
V
14 °C 10 km+ - 200° 200° 6 kt METAR EDDG 130520Z AUTO 20006KT 170V230 CAVOK 14/11 Q1026 NOSIG
06:50
V
14 °C 10 km+ - 200° 200° 5 kt METAR EDDG 130450Z AUTO 20005KT 150V240 CAVOK 14/11 Q1026 NOSIG
06:20
V
14 °C 10 km+ - 220° 220° 5 kt METAR EDDG 130420Z AUTO 22005KT CAVOK 14/11 Q1026 NOSIG
05:50
V
15 °C 10 km+ - 210° 210° 7 kt METAR EDDG 130350Z AUTO 21007KT 180V240 CAVOK 15/11 Q1025 NOSIG
05:20
V
15 °C 10 km+ - 210° 210° 7 kt METAR EDDG 130320Z AUTO 21007KT 170V230 CAVOK 15/11 Q1025 NOSIG
04:50
V
14 °C 10 km+ - 200° 200° 5 kt METAR EDDG 130250Z AUTO 20005KT CAVOK 14/11 Q1025 NOSIG
04:20
V
14 °C 10 km+ - 180° 180° 4 kt METAR EDDG 130220Z AUTO 18004KT CAVOK 14/11 Q1026 NOSIG
03:50
V
14 °C 10 km+ - 200° 200° 5 kt METAR EDDG 130150Z AUTO 20005KT 160V230 CAVOK 14/11 Q1026 NOSIG
03:20
V
14 °C 10 km+ - 190° 190° 5 kt METAR EDDG 130120Z AUTO 19005KT 150V210 CAVOK 14/11 Q1026 NOSIG
02:50
V
14 °C 10 km+ - 190° 190° 5 kt METAR EDDG 130050Z AUTO 19005KT 150V210 CAVOK 14/11 Q1026 NOSIG
02:20
V
14 °C 10 km+ - 200° 200° 4 kt METAR EDDG 130020Z AUTO 20004KT 160V230 CAVOK 14/11 Q1026 NOSIG
01:50
V
13 °C 10 km+ - 170° 170° 3 kt METAR EDDG 122350Z AUTO 17003KT CAVOK 13/11 Q1027 NOSIG
01:20
V
14 °C 10 km+ - 170° 170° 4 kt METAR EDDG 122320Z AUTO 17004KT 9999 FEW040 14/11 Q1027 NOSIG
00:50
V
13 °C 10 km+ - 160° 160° 2 kt METAR EDDG 122250Z AUTO 16002KT 9999 SCT039 13/11 Q1027 NOSIG
00:20
V
14 °C 10 km+ - Var Var 2 kt METAR EDDG 122220Z AUTO VRB02KT 9999 SCT039 14/11 Q1027 NOSIG

12 de abril de 2024

Hora Código Clima Temp. Visibilidade Tecto Vento METAR/SPECI
23:50
V
14 °C 10 km+ - 180° 180° 3 kt METAR EDDG 122150Z AUTO 18003KT 9999 SCT039 14/11 Q1027 NOSIG
23:20
V
15 °C 10 km+ - Var Var 2 kt METAR EDDG 122120Z AUTO VRB02KT 9999 FEW039 15/11 Q1027 NOSIG
22:50
V
17 °C 10 km+ - 220° 220° 4 kt METAR EDDG 122050Z AUTO 22004KT 9999 SCT043 17/12 Q1027 NOSIG
22:20
V
16 °C 10 km+ 4.600 ft 220° 220° 2 kt METAR EDDG 122020Z AUTO 22002KT 9999 BKN046 16/12 Q1027 NOSIG
21:50
V
17 °C 10 km+ - 230° 230° 4 kt METAR EDDG 121950Z AUTO 23004KT 200V260 9999 FEW045 17/12 Q1027 NOSIG
21:20
V
17 °C 10 km+ - 250° 250° 5 kt METAR EDDG 121920Z AUTO 25005KT 9999 FEW044 17/12 Q1027 NOSIG
20:50
V
18 °C 10 km+ - 240° 240° 7 kt METAR EDDG 121850Z AUTO 24007KT 9999 FEW045 18/12 Q1027 NOSIG
20:20
V
18 °C 10 km+ - 230° 230° 7 kt METAR EDDG 121820Z AUTO 23007KT 200V260 CAVOK 18/12 Q1027 NOSIG
19:50
V
19 °C 10 km+ - 230° 230° 7 kt METAR EDDG 121750Z AUTO 23007KT CAVOK 19/12 Q1027 NOSIG
19:20
V
19 °C 10 km+ - 240° 240° 9 kt METAR EDDG 121720Z AUTO 24009KT 9999 FEW044 19/11 Q1027 NOSIG
18:50
V
20 °C 10 km+ - 240° 240° 10 kt METAR EDDG 121650Z AUTO 24010KT 9999 SCT046 20/11 Q1027 NOSIG
18:20
V
20 °C 10 km+ 4.400 ft 240° 240° 11 kt METAR EDDG 121620Z AUTO 24011KT 9999 BKN044 20/11 Q1027 NOSIG
17:50
V
20 °C 10 km+ - 230° 230° 13 kt METAR EDDG 121550Z AUTO 23013KT 9999 FEW042 SCT048 20/10 Q1028 NOSIG
17:20
V
20 °C 10 km+ - 230° 230° 14 kt METAR EDDG 121520Z AUTO 23014KT 9999 FEW043 20/10 Q1028 NOSIG
16:50
V
20 °C 10 km+ - 230° 230° 12 kt METAR EDDG 121450Z AUTO 23012KT 190V250 9999 SCT038 SCT045 20/11 Q1028 NOSIG
16:20
V
20 °C 10 km+ 3.600 ft 230° 230° 12 kt METAR EDDG 121420Z AUTO 23012KT 200V260 9999 BKN036 BKN043 20/11 Q1028 NOSIG
15:50
V
20 °C 10 km+ - 230° 230° 13 kt METAR EDDG 121350Z AUTO 23013KT 9999 FEW034 20/11 Q1029 NOSIG
15:20
V
19 °C 10 km+ 3.100 ft 230° 230° 14 kt METAR EDDG 121320Z AUTO 23014KT 9999 BKN031 BKN038 19/11 Q1029 NOSIG
14:50
V
19 °C 10 km+ - 230° 230° 14 kt METAR EDDG 121250Z AUTO 23014KT 200V270 9999 FEW028 SCT034 19/12 Q1029 NOSIG
14:20
M
18 °C 10 km+ 2.700 ft 250° 250° 13 kt METAR EDDG 121220Z AUTO 25013KT 9999 SCT023 BKN027 BKN034 18/12 Q1029 NOSIG
13:50
M
17 °C 10 km+ 2.100 ft 210° 210° 11 kt METAR EDDG 121150Z AUTO 21011KT 190V250 9999 BKN021 BKN027 OVC044 17/12 Q1029 NOSIG
13:20
M
17 °C 10 km+ 1.900 ft 200° 200° 10 kt METAR EDDG 121120Z AUTO 20010KT 160V240 9999 BKN019 BKN026 OVC042 17/12 Q1030 NOSIG
12:50
M
16 °C 10 km+ 1.900 ft 210° 210° 9 kt METAR EDDG 121050Z AUTO 21009KT 9999 BKN019 OVC040 16/12 Q1030 NOSIG
12:20
M
16 °C 10 km+ 1.800 ft 210° 210° 10 kt METAR EDDG 121020Z AUTO 21010KT 9999 BKN018 BKN024 OVC039 16/12 Q1030 NOSIG
11:50
M
15 °C 10 km+ 1.700 ft 220° 220° 9 kt METAR EDDG 120950Z AUTO 22009KT 160V250 9999 BKN017 BKN022 OVC038 15/12 Q1030 NOSIG
11:20
M
15 °C 10 km+ 1.500 ft 210° 210° 9 kt METAR EDDG 120920Z AUTO 21009KT 180V240 9999 BKN015 BKN020 OVC037 15/12 Q1030 NOSIG
10:50
M
15 °C 10 km+ 1.300 ft 220° 220° 10 kt METAR EDDG 120850Z AUTO 22010KT 180V240 9999 BKN013 OVC035 15/12 Q1030 BECMG BKN015
10:20
M
14 °C 10 km+ 1.000 ft 200° 200° 8 kt METAR EDDG 120820Z AUTO 20008KT 170V240 9999 BKN010 OVC017 OVC033 14/12 Q1030 NOSIG
09:50
M
14 °C 10 km+ 1.000 ft 210° 210° 8 kt METAR EDDG 120750Z AUTO 21008KT 180V240 9999 OVC010 14/12 Q1030 TEMPO BKN009
09:20
M
14 °C 10 km+ 1.000 ft 220° 220° 8 kt METAR EDDG 120720Z AUTO 22008KT 9999 OVC010 14/11 Q1030 TEMPO BKN009
08:50
M
13 °C 10 km+ 1.000 ft 210° 210° 10 kt METAR EDDG 120650Z AUTO 21010KT 9999 BKN010 OVC015 13/11 Q1030 TEMPO BKN009
08:20
M
14 °C 10 km+ 1.300 ft 210° 210° 9 kt METAR EDDG 120620Z AUTO 21009KT 9999 OVC013 14/11 Q1030 TEMPO BKN015
07:50
M
14 °C 10 km+ 1.300 ft 220° 220° 8 kt METAR EDDG 120550Z AUTO 22008KT 180V240 9999 OVC013 14/11 Q1030 NOSIG
Relatar uma mudança